| time (UTC) | temp F | wind direction | speed MPH | gust MPH | rain 1hr in | rain 24hr in | rain mn in | humidity % | barometer mb |
| 20260508163730 | 49 | 306 | 11.0 | 17.0 | 0.00 | 0.00 | 0.00 | 65 | 1008.7 |
| 20260508163240 | 49 | 324 | 11.0 | 17.0 | 0.00 | 0.00 | 0.00 | 64 | 1008.7 |
| 20260508162730 | 49 | 295 | 10.0 | 15.0 | 0.00 | 0.00 | 0.00 | 65 | 1008.8 |
| 20260508162240 | 49 | 316 | 10.0 | 15.0 | 0.00 | 0.00 | 0.00 | 65 | 1008.8 |
| 20260508161724 | 50 | 293 | 7.0 | 15.0 | 0.00 | 0.00 | 0.00 | 63 | 1008.8 |
| 20260508161232 | 50 | 284 | 9.0 | 15.0 | 0.00 | 0.00 | 0.00 | 63 | 1008.8 |
| 20260508160734 | 49 | 292 | 9.0 | 14.0 | 0.00 | 0.00 | 0.00 | 64 | 1008.8 |
| 20260508160218 | 49 | 304 | 7.0 | 12.0 | 0.00 | 0.00 | 0.00 | 67 | 1008.9 |
| 20260508155723 | 49 | 306 | 7.0 | 14.0 | 0.00 | 0.00 | 0.00 | 67 | 1009.0 |
| 20260508155236 | 49 | 309 | 10.0 | 14.0 | 0.00 | 0.00 | 0.00 | 68 | 1009.0 |
| 20260508154720 | 49 | 307 | 9.0 | 12.0 | 0.00 | 0.00 | 0.00 | 67 | 1009.0 |
| 20260508154236 | 48 | 338 | 8.0 | 12.0 | 0.00 | 0.00 | 0.00 | 67 | 1009.0 |
| 20260508153735 | 48 | 285 | 8.0 | 12.0 | 0.00 | 0.00 | 0.00 | 67 | 1009.1 |
| 20260508153241 | 48 | 309 | 8.0 | 12.0 | 0.00 | 0.00 | 0.00 | 69 | 1009.2 |
| 20260508152719 | 48 | 315 | 8.0 | 12.0 | 0.00 | 0.00 | 0.00 | 68 | 1009.2 |
| 20260508152235 | 48 | 325 | 6.0 | 10.0 | 0.00 | 0.00 | 0.00 | 68 | 1009.2 |
| 20260508151739 | 48 | 324 | 7.0 | 10.0 | 0.00 | 0.00 | 0.00 | 67 | 1009.3 |
| 20260508151225 | 48 | 316 | 8.0 | 10.0 | 0.00 | 0.00 | 0.00 | 68 | 1009.3 |
| 20260508150740 | 48 | 323 | 7.0 | 10.0 | 0.00 | 0.00 | 0.00 | 68 | 1009.3 |
| 20260508150244 | 48 | 315 | 7.0 | 10.0 | 0.00 | 0.00 | 0.00 | 66 | 1009.3 |
| 20260508145737 | 48 | 311 | 6.0 | 11.0 | 0.00 | 0.00 | 0.00 | 66 | 1009.3 |
| 20260508145244 | 49 | 306 | 8.0 | 11.0 | 0.00 | 0.00 | 0.00 | 64 | 1009.2 |
| 20260508144731 | 50 | 286 | 7.0 | 13.0 | 0.00 | 0.00 | 0.00 | 64 | 1009.3 |
| 20260508144235 | 50 | 286 | 8.0 | 13.0 | 0.00 | 0.00 | 0.00 | 65 | 1009.4 |
| 20260508143721 | 49 | 273 | 6.0 | 10.0 | 0.00 | 0.00 | 0.00 | 67 | 1009.3 |
| 20260508143236 | 49 | 291 | 3.0 | 14.0 | 0.00 | 0.00 | 0.00 | 68 | 1009.3 |
| 20260508142736 | 48 | 301 | 0.0 | 15.0 | 0.00 | 0.00 | 0.00 | 68 | 1009.3 |
| 20260508142220 | 48 | 274 | 6.0 | 14.0 | 0.00 | 0.00 | 0.00 | 66 | 1009.3 |
| 20260508141730 | 47 | 247 | 11.0 | 14.0 | 0.00 | 0.00 | 0.00 | 67 | 1009.5 |
| 20260508141217 | 47 | 249 | 7.0 | 16.0 | 0.00 | 0.00 | 0.00 | 68 | 1009.5 |
| 20260508140732 | 47 | 242 | 6.0 | 16.0 | 0.00 | 0.00 | 0.00 | 67 | 1009.5 |
| 20260508140246 | 47 | 240 | 7.0 | 12.0 | 0.00 | 0.00 | 0.00 | 67 | 1009.6 |
| 20260508135721 | 47 | 232 | 8.0 | 11.0 | 0.00 | 0.00 | 0.00 | 65 | 1009.6 |
| 20260508135237 | 47 | 237 | 6.0 | 10.0 | 0.00 | 0.00 | 0.00 | 69 | 1009.5 |
| 20260508134723 | 47 | 221 | 5.0 | 12.0 | 0.00 | 0.00 | 0.00 | 69 | 1009.6 |
| 20260508134236 | 46 | 222 | 8.0 | 12.0 | 0.00 | 0.00 | 0.00 | 70 | 1009.5 |
| 20260508133718 | 46 | 229 | 5.0 | 10.0 | 0.00 | 0.00 | 0.00 | 72 | 1009.6 |
| 20260508133232 | 45 | 218 | 7.0 | 11.0 | 0.00 | 0.00 | 0.00 | 71 | 1009.6 |
| 20260508132729 | 45 | 212 | 0.0 | 6.0 | 0.00 | 0.00 | 0.00 | 72 | 1009.7 |
| 20260508132234 | 44 | 198 | 0.0 | 6.0 | 0.00 | 0.00 | 0.00 | 76 | 1009.7 |
| 20260508131721 | 43 | 227 | 3.0 | 6.0 | 0.00 | 0.00 | 0.00 | 77 | 1009.7 |
| 20260508131236 | 43 | 169 | 0.0 | 0.0 | 0.00 | 0.00 | 0.00 | 78 | 1009.7 |
| 20260508130722 | 42 | 177 | 0.0 | 0.0 | 0.00 | 0.00 | 0.00 | 77 | 1009.7 |
| 20260508130217 | 42 | 126 | 0.0 | 0.0 | 0.00 | 0.00 | 0.00 | 79 | 1009.8 |
| 20260508125739 | 41 | 130 | 0.0 | 0.0 | 0.00 | 0.00 | 0.00 | 79 | 1009.8 |
| 20260508125245 | 41 | 128 | 0.0 | 0.0 | 0.00 | 0.00 | 0.00 | 79 | 1009.9 |
| 20260508124731 | 40 | 128 | 0.0 | 0.0 | 0.00 | 0.00 | 0.00 | 81 | 1009.9 |
| 20260508124239 | 40 | 130 | 0.0 | 0.0 | 0.00 | 0.00 | 0.00 | 80 | 1009.9 |
| 20260508123724 | 40 | 142 | 0.0 | 0.0 | 0.00 | 0.00 | 0.00 | 82 | 1009.9 |
| 20260508123238 | 39 | 138 | 0.0 | 0.0 | 0.00 | 0.00 | 0.00 | 82 | 1009.9 |
| 20260508122737 | 39 | 136 | 0.0 | 0.0 | 0.00 | 0.00 | 0.00 | 82 | 1009.8 |
| 20260508122223 | 39 | 139 | 0.0 | 0.0 | 0.00 | 0.00 | 0.00 | 83 | 1009.9 |
| 20260508121733 | 38 | 140 | 0.0 | 0.0 | 0.00 | 0.00 | 0.00 | 84 | 1010.0 |
| 20260508121238 | 38 | 140 | 0.0 | 0.0 | 0.00 | 0.00 | 0.00 | 85 | 1010.0 |
| 20260508120743 | 37 | 136 | 0.0 | 0.0 | 0.00 | 0.00 | 0.00 | 86 | 1010.0 |
| 20260508120247 | 36 | 139 | 0.0 | 0.0 | 0.00 | 0.00 | 0.00 | 86 | 1009.9 |
| 20260508115722 | 36 | 141 | 0.0 | 0.0 | 0.00 | 0.00 | 0.00 | 87 | 1010.0 |
| 20260508115236 | 35 | 142 | 0.0 | 0.0 | 0.00 | 0.00 | 0.00 | 87 | 1010.0 |
| 20260508114721 | 35 | 143 | 0.0 | 0.0 | 0.00 | 0.00 | 0.00 | 88 | 1009.9 |
| 20260508114231 | 35 | 167 | 0.0 | 5.0 | 0.00 | 0.00 | 0.00 | 88 | 1010.0 |
| 20260508113736 | 34 | 179 | 2.0 | 6.0 | 0.00 | 0.00 | 0.00 | 89 | 1009.9 |
| 20260508113240 | 34 | 205 | 3.0 | 6.0 | 0.00 | 0.00 | 0.00 | 89 | 1010.0 |
| 20260508112734 | 33 | 230 | 5.0 | 6.0 | 0.00 | 0.00 | 0.00 | 89 | 1009.9 |
| 20260508112220 | 33 | 259 | 0.0 | 4.0 | 0.00 | 0.00 | 0.00 | 89 | 1009.9 |
| 20260508111733 | 33 | 259 | 0.0 | 4.0 | 0.00 | 0.00 | 0.00 | 89 | 1009.9 |
| 20260508111238 | 32 | 260 | 2.0 | 6.0 | 0.00 | 0.00 | 0.00 | 89 | 1009.9 |
| 20260508110738 | 32 | 263 | 3.0 | 6.0 | 0.00 | 0.00 | 0.00 | 88 | 1010.0 |
| 20260508110242 | 32 | 264 | 2.0 | 3.0 | 0.00 | 0.00 | 0.00 | 88 | 1009.9 |
| 20260508105739 | 32 | 264 | 0.0 | 0.0 | 0.00 | 0.00 | 0.00 | 88 | 1009.9 |
| 20260508105222 | 32 | 264 | 0.0 | 6.0 | 0.00 | 0.00 | 0.00 | 87 | 1009.9 |
| 20260508104737 | 32 | 264 | 0.0 | 6.0 | 0.00 | 0.00 | 0.00 | 87 | 1009.9 |
| 20260508104222 | 32 | 266 | 2.0 | 3.0 | 0.00 | 0.00 | 0.00 | 86 | 1009.7 |
| 20260508103718 | 32 | 273 | 0.0 | 0.0 | 0.00 | 0.00 | 0.00 | 85 | 1009.9 |
| 20260508103233 | 31 | 273 | 0.0 | 0.0 | 0.00 | 0.00 | 0.00 | 85 | 1010.0 |
| 20260508102729 | 31 | 273 | 0.0 | 0.0 | 0.00 | 0.00 | 0.00 | 85 | 1009.9 |
| 20260508102217 | 31 | 273 | 0.0 | 0.0 | 0.00 | 0.00 | 0.00 | 84 | 1009.9 |
| 20260508101735 | 31 | 273 | 0.0 | 0.0 | 0.00 | 0.00 | 0.00 | 84 | 1010.0 |
| 20260508101240 | 31 | 273 | 0.0 | 0.0 | 0.00 | 0.00 | 0.00 | 85 | 1010.0 |
| 20260508100726 | 31 | 273 | 0.0 | 0.0 | 0.00 | 0.00 | 0.00 | 85 | 1009.9 |
| 20260508100240 | 31 | 273 | 0.0 | 0.0 | 0.00 | 0.00 | 0.00 | 86 | 1009.9 |
| 20260508095719 | 31 | 273 | 0.0 | 0.0 | 0.00 | 0.00 | 0.00 | 87 | 1009.8 |
| 20260508095235 | 31 | 273 | 0.0 | 0.0 | 0.00 | 0.00 | 0.00 | 88 | 1009.8 |
| 20260508094735 | 31 | 273 | 0.0 | 0.0 | 0.00 | 0.00 | 0.00 | 87 | 1009.8 |
| 20260508094241 | 31 | 273 | 0.0 | 0.0 | 0.00 | 0.00 | 0.00 | 87 | 1009.8 |
| 20260508093728 | 31 | 273 | 0.0 | 0.0 | 0.00 | 0.00 | 0.00 | 87 | 1009.8 |
| 20260508093235 | 31 | 273 | 0.0 | 0.0 | 0.00 | 0.00 | 0.00 | 86 | 1010.0 |
| 20260508092734 | 31 | 273 | 0.0 | 0.0 | 0.00 | 0.00 | 0.00 | 87 | 1010.0 |
| 20260508092221 | 32 | 273 | 0.0 | 0.0 | 0.00 | 0.00 | 0.00 | 87 | 1010.0 |
| 20260508091717 | 32 | 273 | 0.0 | 0.0 | 0.00 | 0.00 | 0.00 | 87 | 1010.0 |
| 20260508091231 | 32 | 273 | 0.0 | 0.0 | 0.00 | 0.00 | 0.00 | 87 | 1010.0 |
| 20260508090734 | 32 | 273 | 0.0 | 0.0 | 0.00 | 0.00 | 0.00 | 86 | 1010.1 |
| 20260508090237 | 33 | 273 | 0.0 | 0.0 | 0.00 | 0.00 | 0.00 | 82 | 1010.2 |
| 20260508085735 | 32 | 273 | 0.0 | 0.0 | 0.00 | 0.00 | 0.00 | 80 | 1010.2 |
| 20260508085222 | 32 | 273 | 0.0 | 8.0 | 0.00 | 0.00 | 0.00 | 81 | 1010.2 |
| 20260508084737 | 31 | 273 | 3.0 | 8.0 | 0.00 | 0.00 | 0.00 | 81 | 1010.3 |
| 20260508084242 | 31 | 275 | 0.0 | 0.0 | 0.00 | 0.00 | 0.00 | 83 | 1010.3 |
| 20260508083729 | 31 | 274 | 0.0 | 0.0 | 0.00 | 0.00 | 0.00 | 84 | 1010.3 |
| 20260508083244 | 31 | 274 | 0.0 | 0.0 | 0.00 | 0.00 | 0.00 | 84 | 1010.2 |
| 20260508082738 | 31 | 275 | 0.0 | 0.0 | 0.00 | 0.00 | 0.00 | 83 | 1010.2 |
| 20260508082244 | 31 | 275 | 0.0 | 0.0 | 0.00 | 0.00 | 0.00 | 82 | 1010.1 |
| 20260508081731 | 31 | 275 | 0.0 | 0.0 | 0.00 | 0.00 | 0.00 | 83 | 1010.1 |
| 20260508081237 | 31 | 275 | 0.0 | 0.0 | 0.00 | 0.00 | 0.00 | 83 | 1010.2 |
| 20260508080723 | 31 | 274 | 0.0 | 0.0 | 0.00 | 0.00 | 0.00 | 82 | 1010.2 |
| 20260508080237 | 31 | 274 | 0.0 | 0.0 | 0.00 | 0.00 | 0.00 | 82 | 1010.3 |
| 20260508075736 | 30 | 275 | 0.0 | 0.0 | 0.00 | 0.00 | 0.00 | 82 | 1010.4 |
| 20260508075221 | 30 | 274 | 0.0 | 0.0 | 0.00 | 0.00 | 0.00 | 83 | 1010.5 |
| 20260508074731 | 30 | 275 | 0.0 | 0.0 | 0.00 | 0.00 | 0.00 | 83 | 1010.5 |
| 20260508074218 | 30 | 275 | 0.0 | 0.0 | 0.00 | 0.00 | 0.00 | 84 | 1010.6 |
| 20260508073733 | 30 | 274 | 0.0 | 0.0 | 0.00 | 0.00 | 0.00 | 84 | 1010.5 |
| 20260508073217 | 30 | 274 | 0.0 | 0.0 | 0.00 | 0.00 | 0.00 | 84 | 1010.5 |
| 20260508072724 | 30 | 274 | 0.0 | 0.0 | 0.00 | 0.00 | 0.00 | 84 | 1010.5 |
| 20260508072239 | 30 | 274 | 0.0 | 0.0 | 0.00 | 0.00 | 0.00 | 84 | 1010.5 |
| 20260508071745 | 30 | 274 | 0.0 | 0.0 | 0.00 | 0.00 | 0.00 | 84 | 1010.6 |
| 20260508071226 | 30 | 275 | 0.0 | 0.0 | 0.00 | 0.00 | 0.00 | 85 | 1010.6 |
| 20260508070733 | 31 | 275 | 0.0 | 0.0 | 0.00 | 0.00 | 0.00 | 85 | 1010.6 |
| 20260508070240 | 31 | 274 | 0.0 | 0.0 | 0.00 | 0.00 | 0.00 | 84 | 1010.7 |
| 20260508065738 | 31 | 275 | 0.0 | 0.0 | 0.00 | 0.00 | 0.00 | 85 | 1010.7 |
| 20260508065224 | 31 | 275 | 0.0 | 0.0 | 0.00 | 0.00 | 0.00 | 84 | 1010.8 |
| 20260508064739 | 31 | 275 | 0.0 | 0.0 | 0.00 | 0.00 | 0.00 | 84 | 1010.9 |
| 20260508064225 | 31 | 275 | 0.0 | 0.0 | 0.00 | 0.00 | 0.00 | 85 | 1011.0 |
| 20260508063739 | 31 | 275 | 0.0 | 0.0 | 0.00 | 0.00 | 0.00 | 85 | 1011.0 |
| 20260508063240 | 31 | 275 | 0.0 | 0.0 | 0.00 | 0.00 | 0.00 | 85 | 1011.0 |
| 20260508062739 | 32 | 275 | 0.0 | 0.0 | 0.00 | 0.00 | 0.00 | 85 | 1011.2 |
| 20260508062241 | 32 | 275 | 0.0 | 0.0 | 0.00 | 0.00 | 0.00 | 85 | 1011.1 |
| 20260508061727 | 32 | 275 | 0.0 | 0.0 | 0.00 | 0.00 | 0.00 | 83 | 1011.4 |
| 20260508061241 | 32 | 275 | 0.0 | 8.0 | 0.00 | 0.00 | 0.00 | 80 | 1011.3 |
| 20260508060727 | 31 | 275 | 0.0 | 8.0 | 0.00 | 0.00 | 0.00 | 81 | 1011.4 |
| 20260508060241 | 31 | 265 | 0.0 | 0.0 | 0.00 | 0.00 | 0.00 | 83 | 1011.3 |
| 20260508055740 | 31 | 265 | 0.0 | 0.0 | 0.00 | 0.00 | 0.00 | 83 | 1011.2 |
| 20260508055240 | 31 | 265 | 0.0 | 0.0 | 0.00 | 0.00 | 0.00 | 84 | 1011.2 |
| 20260508054743 | 31 | 265 | 0.0 | 0.0 | 0.00 | 0.00 | 0.00 | 84 | 1011.2 |
| 20260508054228 | 31 | 265 | 0.0 | 0.0 | 0.00 | 0.00 | 0.00 | 85 | 1011.2 |
| 20260508053734 | 32 | 265 | 0.0 | 0.0 | 0.00 | 0.00 | 0.00 | 85 | 1011.2 |
| 20260508053241 | 32 | 265 | 0.0 | 0.0 | 0.00 | 0.00 | 0.00 | 86 | 1011.2 |
| 20260508052719 | 32 | 265 | 0.0 | 0.0 | 0.00 | 0.00 | 0.00 | 86 | 1011.2 |
| 20260508052236 | 32 | 265 | 0.0 | 0.0 | 0.00 | 0.00 | 0.00 | 86 | 1011.3 |
| 20260508051739 | 32 | 265 | 0.0 | 0.0 | 0.00 | 0.00 | 0.00 | 87 | 1011.4 |
| 20260508051245 | 33 | 265 | 0.0 | 0.0 | 0.00 | 0.00 | 0.00 | 87 | 1011.4 |
| 20260508050731 | 33 | 265 | 0.0 | 0.0 | 0.00 | 0.00 | 0.00 | 87 | 1011.4 |
| 20260508050237 | 33 | 265 | 0.0 | 0.0 | 0.00 | 0.00 | 0.00 | 87 | 1011.5 |
| 20260508045734 | 33 | 265 | 0.0 | 0.0 | 0.00 | 0.00 | 0.00 | 88 | 1011.4 |
| 20260508045220 | 34 | 265 | 0.0 | 0.0 | 0.00 | 0.00 | 0.00 | 88 | 1011.4 |
| 20260508044733 | 34 | 265 | 0.0 | 0.0 | 0.00 | 0.00 | 0.00 | 88 | 1011.3 |
| 20260508044219 | 34 | 265 | 0.0 | 0.0 | 0.00 | 0.00 | 0.00 | 88 | 1011.3 |
| 20260508043730 | 35 | 265 | 0.0 | 0.0 | 0.00 | 0.00 | 0.00 | 88 | 1011.3 |
| 20260508043235 | 35 | 265 | 0.0 | 0.0 | 0.00 | 0.00 | 0.00 | 88 | 1011.3 |
| 20260508042735 | 35 | 265 | 0.0 | 0.0 | 0.00 | 0.00 | 0.00 | 88 | 1011.3 |
| 20260508042239 | 35 | 265 | 0.0 | 0.0 | 0.00 | 0.00 | 0.00 | 88 | 1011.3 |
| 20260508041726 | 35 | 265 | 0.0 | 0.0 | 0.00 | 0.00 | 0.00 | 88 | 1011.3 |
| 20260508041242 | 35 | 265 | 0.0 | 0.0 | 0.00 | 0.00 | 0.00 | 88 | 1011.3 |
| 20260508040727 | 36 | 265 | 0.0 | 0.0 | 0.00 | 0.00 | 0.00 | 88 | 1011.3 |
| 20260508040242 | 36 | 265 | 0.0 | 0.0 | 0.00 | 0.00 | 0.00 | 88 | 1011.4 |
| 20260508035729 | 36 | 265 | 0.0 | 0.0 | 0.00 | 0.00 | 0.00 | 88 | 1011.4 |
| 20260508035218 | 36 | 265 | 0.0 | 0.0 | 0.00 | 0.00 | 0.00 | 88 | 1011.4 |
| 20260508034736 | 36 | 265 | 0.0 | 0.0 | 0.00 | 0.00 | 0.00 | 88 | 1011.3 |
| 20260508034222 | 36 | 265 | 0.0 | 0.0 | 0.00 | 0.00 | 0.00 | 88 | 1011.2 |
| 20260508033717 | 37 | 265 | 0.0 | 0.0 | 0.00 | 0.00 | 0.00 | 88 | 1011.2 |
| 20260508033233 | 37 | 265 | 0.0 | 0.0 | 0.00 | 0.00 | 0.00 | 88 | 1011.2 |
| 20260508032732 | 37 | 265 | 0.0 | 0.0 | 0.00 | 0.00 | 0.00 | 87 | 1011.2 |
| 20260508032220 | 37 | 265 | 0.0 | 0.0 | 0.00 | 0.00 | 0.00 | 87 | 1011.2 |
| 20260508031732 | 37 | 265 | 0.0 | 0.0 | 0.00 | 0.00 | 0.00 | 86 | 1011.2 |
| 20260508031242 | 38 | 265 | 0.0 | 0.0 | 0.00 | 0.00 | 0.00 | 86 | 1011.2 |
| 20260508030730 | 38 | 265 | 0.0 | 0.0 | 0.00 | 0.00 | 0.00 | 86 | 1011.3 |
| 20260508030240 | 38 | 265 | 0.0 | 0.0 | 0.00 | 0.00 | 0.00 | 86 | 1011.3 |
| 20260508025741 | 38 | 265 | 0.0 | 0.0 | 0.00 | 0.00 | 0.00 | 86 | 1011.2 |
| 20260508025230 | 38 | 265 | 0.0 | 0.0 | 0.00 | 0.00 | 0.00 | 86 | 1011.3 |
| 20260508024721 | 38 | 265 | 0.0 | 0.0 | 0.00 | 0.00 | 0.00 | 86 | 1011.3 |
| 20260508024217 | 38 | 265 | 0.0 | 0.0 | 0.00 | 0.00 | 0.00 | 86 | 1011.3 |
| 20260508023735 | 39 | 265 | 0.0 | 0.0 | 0.00 | 0.00 | 0.00 | 85 | 1011.4 |
| 20260508023240 | 39 | 265 | 0.0 | 0.0 | 0.00 | 0.00 | 0.00 | 85 | 1011.3 |
| 20260508022740 | 39 | 265 | 0.0 | 0.0 | 0.00 | 0.00 | 0.00 | 85 | 1011.4 |
| 20260508022228 | 39 | 265 | 0.0 | 0.0 | 0.00 | 0.00 | 0.00 | 85 | 1011.4 |
| 20260508021718 | 39 | 265 | 0.0 | 0.0 | 0.00 | 0.00 | 0.00 | 85 | 1011.4 |
| 20260508021235 | 39 | 265 | 0.0 | 0.0 | 0.00 | 0.00 | 0.00 | 84 | 1011.4 |
| 20260508020723 | 39 | 265 | 0.0 | 0.0 | 0.00 | 0.00 | 0.00 | 84 | 1011.4 |
| 20260508020242 | 39 | 265 | 0.0 | 0.0 | 0.00 | 0.00 | 0.00 | 84 | 1011.5 |
| 20260508015722 | 39 | 265 | 0.0 | 0.0 | 0.00 | 0.00 | 0.00 | 84 | 1011.5 |
| 20260508015234 | 39 | 265 | 0.0 | 0.0 | 0.00 | 0.00 | 0.00 | 83 | 1011.5 |
| 20260508014743 | 40 | 265 | 0.0 | 0.0 | 0.00 | 0.00 | 0.00 | 83 | 1011.4 |
| 20260508014232 | 40 | 265 | 0.0 | 0.0 | 0.00 | 0.00 | 0.00 | 83 | 1011.4 |
| 20260508013741 | 40 | 265 | 0.0 | 0.0 | 0.00 | 0.00 | 0.00 | 81 | 1011.4 |
| 20260508013231 | 41 | 265 | 0.0 | 0.0 | 0.00 | 0.00 | 0.00 | 79 | 1011.4 |
| 20260508012732 | 41 | 264 | 0.0 | 0.0 | 0.00 | 0.00 | 0.00 | 77 | 1011.3 |
| 20260508012221 | 42 | 264 | 0.0 | 0.0 | 0.00 | 0.00 | 0.00 | 73 | 1011.2 |
| 20260508011718 | 42 | 264 | 0.0 | 0.0 | 0.00 | 0.00 | 0.00 | 72 | 1011.2 |
| 20260508011236 | 42 | 264 | 0.0 | 0.0 | 0.00 | 0.00 | 0.00 | 72 | 1011.2 |
| 20260508010723 | 43 | 264 | 0.0 | 0.0 | 0.00 | 0.00 | 0.00 | 70 | 1011.1 |
| 20260508010244 | 43 | 264 | 0.0 | 0.0 | 0.00 | 0.00 | 0.00 | 65 | 1011.2 |
| 20260508005745 | 43 | 264 | 0.0 | 0.0 | 0.00 | 0.00 | 0.00 | 61 | 1011.2 |
| 20260508005234 | 44 | 264 | 0.0 | 0.0 | 0.00 | 0.00 | 0.00 | 61 | 1011.2 |
| 20260508004722 | 44 | 264 | 0.0 | 6.0 | 0.00 | 0.00 | 0.00 | 61 | 1011.1 |
| 20260508004239 | 44 | 264 | 0.0 | 6.0 | 0.00 | 0.00 | 0.00 | 60 | 1011.1 |
| 20260508003726 | 44 | 264 | 3.0 | 8.0 | 0.00 | 0.00 | 0.00 | 60 | 1011.1 |
| 20260508003242 | 44 | 264 | 4.0 | 8.0 | 0.00 | 0.00 | 0.00 | 59 | 1011.0 |
| 20260508002736 | 44 | 264 | 3.0 | 9.0 | 0.00 | 0.00 | 0.00 | 59 | 1010.9 |
| 20260508002243 | 44 | 264 | 5.0 | 9.0 | 0.00 | 0.00 | 0.00 | 59 | 1010.8 |
| 20260508001731 | 44 | 265 | 6.0 | 9.0 | 0.00 | 0.00 | 0.00 | 58 | 1010.8 |
| 20260508001218 | 44 | 277 | 0.0 | 6.0 | 0.00 | 0.00 | 0.00 | 58 | 1010.8 |
| 20260508000734 | 44 | 277 | 0.0 | 7.0 | 0.00 | 0.00 | 0.00 | 59 | 1010.8 |
| 20260508000239 | 44 | 277 | 3.0 | 7.0 | 0.00 | 0.00 | 0.00 | 59 | 1010.8 |
| 20260507235738 | 44 | 278 | 0.0 | 5.0 | 0.00 | 0.00 | 0.00 | 61 | 1010.7 |
| 20260507235245 | 44 | 278 | 1.0 | 7.0 | 0.00 | 0.00 | 0.00 | 60 | 1010.8 |
| 20260507234728 | 45 | 278 | 2.0 | 13.0 | 0.00 | 0.00 | 0.00 | 58 | 1010.8 |
| 20260507234236 | 45 | 265 | 4.0 | 14.0 | 0.00 | 0.00 | 0.00 | 55 | 1010.8 |
| 20260507233743 | 45 | 257 | 8.0 | 14.0 | 0.00 | 0.00 | 0.00 | 55 | 1010.8 |
| 20260507233246 | 46 | 259 | 5.0 | 12.0 | 0.00 | 0.00 | 0.00 | 54 | 1010.7 |
| 20260507232723 | 45 | 266 | 7.0 | 11.0 | 0.00 | 0.00 | 0.00 | 55 | 1010.8 |
| 20260507232240 | 45 | 271 | 7.0 | 13.0 | 0.00 | 0.00 | 0.00 | 56 | 1010.8 |
| 20260507231728 | 45 | 275 | 9.0 | 13.0 | 0.00 | 0.00 | 0.00 | 57 | 1010.8 |
| 20260507231243 | 45 | 275 | 10.0 | 13.0 | 0.00 | 0.00 | 0.00 | 58 | 1010.9 |
| 20260507230745 | 45 | 284 | 6.0 | 11.0 | 0.00 | 0.00 | 0.00 | 58 | 1010.8 |
| 20260507230233 | 45 | 279 | 8.0 | 11.0 | 0.00 | 0.00 | 0.00 | 58 | 1010.9 |
| 20260507225731 | 45 | 265 | 7.0 | 11.0 | 0.00 | 0.00 | 0.00 | 58 | 1010.8 |
| 20260507225237 | 45 | 277 | 6.0 | 12.0 | 0.00 | 0.00 | 0.00 | 58 | 1010.9 |
| 20260507224725 | 45 | 277 | 8.0 | 13.0 | 0.00 | 0.00 | 0.00 | 57 | 1011.0 |
| 20260507224240 | 45 | 288 | 8.0 | 12.0 | 0.00 | 0.00 | 0.00 | 58 | 1011.0 |
| 20260507223728 | 45 | 286 | 6.0 | 11.0 | 0.00 | 0.00 | 0.00 | 57 | 1011.0 |
| 20260507223244 | 45 | 294 | 7.0 | 13.0 | 0.00 | 0.00 | 0.00 | 57 | 1011.0 |
| 20260507222739 | 45 | 293 | 8.0 | 13.0 | 0.00 | 0.00 | 0.00 | 57 | 1011.0 |
| 20260507222245 | 45 | 288 | 8.0 | 12.0 | 0.00 | 0.00 | 0.00 | 58 | 1011.1 |
| 20260507221733 | 45 | 271 | 8.0 | 12.0 | 0.00 | 0.00 | 0.00 | 58 | 1011.1 |
| 20260507221239 | 45 | 282 | 9.0 | 14.0 | 0.00 | 0.00 | 0.00 | 58 | 1011.1 |
| 20260507220727 | 45 | 294 | 9.0 | 14.0 | 0.00 | 0.00 | 0.00 | 59 | 1011.1 |
| 20260507220247 | 45 | 291 | 6.0 | 12.0 | 0.00 | 0.00 | 0.00 | 59 | 1011.0 |
| 20260507215746 | 45 | 283 | 9.0 | 13.0 | 0.00 | 0.00 | 0.00 | 59 | 1011.1 |
| 20260507215234 | 45 | 290 | 8.0 | 14.0 | 0.00 | 0.00 | 0.00 | 60 | 1011.1 |
| 20260507214736 | 45 | 294 | 10.0 | 15.0 | 0.00 | 0.00 | 0.00 | 60 | 1011.1 |
| 20260507214242 | 45 | 276 | 10.0 | 15.0 | 0.00 | 0.00 | 0.00 | 61 | 1011.1 |
| 20260507213728 | 45 | 282 | 11.0 | 15.0 | 0.00 | 0.00 | 0.00 | 60 | 1011.1 |
| 20260507213238 | 45 | 274 | 10.0 | 15.0 | 0.00 | 0.00 | 0.00 | 59 | 1011.1 |
| 20260507212736 | 45 | 289 | 8.0 | 14.0 | 0.00 | 0.00 | 0.00 | 60 | 1011.1 |
| 20260507212223 | 45 | 269 | 8.0 | 14.0 | 0.00 | 0.00 | 0.00 | 61 | 1011.1 |
| 20260507211720 | 45 | 304 | 8.0 | 13.0 | 0.00 | 0.00 | 0.00 | 58 | 1011.1 |
| 20260507211236 | 45 | 282 | 8.0 | 17.0 | 0.00 | 0.00 | 0.00 | 56 | 1011.1 |
| 20260507210741 | 46 | 273 | 10.0 | 17.0 | 0.00 | 0.00 | 0.00 | 57 | 1011.0 |
| 20260507210229 | 45 | 294 | 11.0 | 16.0 | 0.00 | 0.00 | 0.00 | 58 | 1011.1 |
| 20260507205730 | 45 | 275 | 12.0 | 16.0 | 0.00 | 0.00 | 0.00 | 56 | 1011.1 |
| 20260507205220 | 45 | 259 | 11.0 | 17.0 | 0.00 | 0.00 | 0.00 | 57 | 1011.1 |
| 20260507204736 | 46 | 279 | 11.0 | 17.0 | 0.00 | 0.00 | 0.00 | 57 | 1011.1 |
| 20260507204224 | 45 | 285 | 9.0 | 15.0 | 0.00 | 0.00 | 0.00 | 60 | 1011.1 |
| 20260507203720 | 45 | 284 | 10.0 | 14.0 | 0.00 | 0.00 | 0.00 | 62 | 1011.1 |
| 20260507203237 | 45 | 291 | 8.0 | 15.0 | 0.00 | 0.00 | 0.00 | 61 | 1011.1 |
| 20260507202733 | 45 | 262 | 9.0 | 17.0 | 0.00 | 0.00 | 0.00 | 62 | 1011.1 |
| 20260507202243 | 45 | 271 | 11.0 | 17.0 | 0.00 | 0.00 | 0.00 | 63 | 1011.1 |
| 20260507201732 | 45 | 288 | 8.0 | 16.0 | 0.00 | 0.00 | 0.00 | 62 | 1011.1 |
| 20260507201240 | 45 | 290 | 9.0 | 18.0 | 0.00 | 0.00 | 0.00 | 63 | 1011.1 |
| 20260507200729 | 45 | 292 | 10.0 | 18.0 | 0.00 | 0.00 | 0.00 | 64 | 1011.1 |
| 20260507200245 | 45 | 285 | 9.0 | 16.0 | 0.00 | 0.00 | 0.00 | 63 | 1011.1 |
| 20260507195744 | 45 | 298 | 11.0 | 16.0 | 0.00 | 0.00 | 0.00 | 64 | 1011.1 |
| 20260507195232 | 45 | 311 | 10.0 | 15.0 | 0.00 | 0.00 | 0.00 | 64 | 1011.1 |
| 20260507194722 | 46 | 292 | 9.0 | 14.0 | 0.00 | 0.00 | 0.00 | 61 | 1011.1 |
| 20260507194234 | 47 | 301 | 8.0 | 12.0 | 0.00 | 0.00 | 0.00 | 58 | 1011.2 |
| 20260507193721 | 48 | 280 | 8.0 | 14.0 | 0.00 | 0.00 | 0.00 | 53 | 1011.2 |
| 20260507193244 | 48 | 269 | 8.0 | 15.0 | 0.00 | 0.00 | 0.00 | 53 | 1011.2 |
| 20260507192723 | 47 | 268 | 7.0 | 14.0 | 0.00 | 0.00 | 0.00 | 51 | 1011.3 |
| 20260507192218 | 47 | 263 | 8.0 | 18.0 | 0.00 | 0.00 | 0.00 | 52 | 1011.3 |
| 20260507191735 | 47 | 252 | 13.0 | 18.0 | 0.00 | 0.00 | 0.00 | 52 | 1011.4 |
| 20260507191223 | 46 | 257 | 9.0 | 18.0 | 0.00 | 0.00 | 0.00 | 53 | 1011.4 |
| 20260507190738 | 46 | 250 | 10.0 | 18.0 | 0.00 | 0.00 | 0.00 | 54 | 1011.5 |
| 20260507190240 | 46 | 263 | 8.0 | 16.0 | 0.00 | 0.00 | 0.00 | 58 | 1011.5 |
| 20260507185718 | 45 | 277 | 7.0 | 14.0 | 0.00 | 0.00 | 0.00 | 64 | 1011.6 |
| 20260507185235 | 45 | 300 | 9.0 | 14.0 | 0.00 | 0.00 | 0.00 | 64 | 1011.5 |
| 20260507184722 | 45 | 288 | 9.0 | 15.0 | 0.00 | 0.00 | 0.00 | 64 | 1011.6 |
| 20260507184239 | 45 | 283 | 10.0 | 19.0 | 0.00 | 0.00 | 0.00 | 65 | 1011.6 |
| 20260507183727 | 44 | 282 | 11.0 | 19.0 | 0.00 | 0.00 | 0.00 | 67 | 1011.6 |
| 20260507183244 | 44 | 279 | 11.0 | 16.0 | 0.00 | 0.00 | 0.00 | 69 | 1011.7 |
| 20260507182723 | 44 | 286 | 11.0 | 17.0 | 0.00 | 0.00 | 0.00 | 70 | 1011.7 |
| 20260507182238 | 44 | 279 | 12.0 | 17.0 | 0.00 | 0.00 | 0.00 | 70 | 1011.8 |
| 20260507181742 | 44 | 298 | 10.0 | 17.0 | 0.00 | 0.00 | 0.00 | 70 | 1011.8 |
| 20260507181231 | 44 | 288 | 10.0 | 17.0 | 0.00 | 0.00 | 0.00 | 70 | 1011.8 |
| 20260507180737 | 44 | 267 | 11.0 | 17.0 | 0.00 | 0.00 | 0.00 | 70 | 1011.9 |
| 20260507180245 | 44 | 288 | 11.0 | 17.0 | 0.00 | 0.00 | 0.00 | 68 | 1011.9 |
| 20260507175723 | 44 | 294 | 11.0 | 17.0 | 0.00 | 0.00 | 0.00 | 67 | 1011.9 |
| 20260507175238 | 44 | 306 | 10.0 | 16.0 | 0.00 | 0.00 | 0.00 | 66 | 1012.0 |
| 20260507174726 | 44 | 291 | 7.0 | 12.0 | 0.00 | 0.00 | 0.00 | 64 | 1012.0 |
| 20260507174241 | 44 | 271 | 7.0 | 12.0 | 0.00 | 0.00 | 0.00 | 62 | 1012.0 |
| 20260507173744 | 45 | 303 | 7.0 | 14.0 | 0.00 | 0.00 | 0.00 | 62 | 1012.1 |
| 20260507173231 | 45 | 289 | 8.0 | 15.0 | 0.00 | 0.00 | 0.00 | 63 | 1012.1 |
| 20260507172729 | 44 | 302 | 9.0 | 15.0 | 0.00 | 0.00 | 0.00 | 64 | 1012.2 |
| 20260507172236 | 44 | 303 | 8.0 | 13.0 | 0.00 | 0.00 | 0.00 | 63 | 1012.3 |
| 20260507171724 | 44 | 310 | 9.0 | 13.0 | 0.00 | 0.00 | 0.00 | 63 | 1012.2 |
| 20260507171240 | 44 | 286 | 9.0 | 13.0 | 0.00 | 0.00 | 0.00 | 63 | 1012.3 |
| 20260507170726 | 44 | 271 | 9.0 | 16.0 | 0.00 | 0.00 | 0.00 | 63 | 1012.4 |
| 20260507170242 | 44 | 289 | 10.0 | 16.0 | 0.00 | 0.00 | 0.00 | 61 | 1012.4 |
| 20260507165737 | 44 | 296 | 9.0 | 15.0 | 0.00 | 0.00 | 0.00 | 62 | 1012.5 |
| 20260507165245 | 44 | 277 | 9.0 | 15.0 | 0.00 | 0.00 | 0.00 | 63 | 1012.6 |
| 20260507164734 | 44 | 299 | 11.0 | 15.0 | 0.00 | 0.00 | 0.00 | 64 | 1012.7 |
| 20260507164221 | 44 | 289 | 11.0 | 15.0 | 0.00 | 0.00 | 0.00 | 64 | 1012.7 |